• en France
  • Liste des pays
  • À 7 jours
  • Température de l'eau
  • Carte satellitaire
  • Carte météo
  • Widgets météo
  • user-avatar
    Se connecter

    Météo par heure à Newport

    Ce jour, 21 Novembre, Mardi

    Heure Température Précipitation Vent Pression Humidité
    00:00 +13°C° 0 mm 6 m/s 758 mmHg 95%
    01:00 +13°C° 0 mm 6 m/s 758 mmHg 95%
    02:00 +11°C° 0 mm 6 m/s 757 mmHg 95%
    03:00 +11°C° 0 mm 6 m/s 757 mmHg 95%
    04:00 +11°C° 0 mm 6 m/s 757 mmHg 95%
    05:00 +11°C° 0 mm 6 m/s 757 mmHg 94%
    06:00 +11°C° 0 mm 6 m/s 756 mmHg 94%
    07:00 +11°C° 0 mm 6 m/s 756 mmHg 93%
    08:00 +11°C° 0 mm 6 m/s 756 mmHg 92%
    09:00 +11°C° 0 mm 6 m/s 756 mmHg 92%
    10:00 +11°C° 0,1 mm 7 m/s 756 mmHg 91%
    11:00 +12°C° 0,1 mm 7 m/s 756 mmHg 90%
    12:00 +12°C° 0,1 mm 7 m/s 755 mmHg 89%
    13:00 +12°C° 0,1 mm 8 m/s 755 mmHg 89%
    14:00 +12°C° 0,1 mm 8 m/s 754 mmHg 89%
    15:00 +12°C° 0,1 mm 9 m/s 753 mmHg 89%
    16:00 +12°C° 0,8 mm 9 m/s 753 mmHg 90%
    17:00 +12°C° 0,8 mm 10 m/s 752 mmHg 90%
    18:00 +12°C° 0,8 mm 10 m/s 752 mmHg 91%
    19:00 +12°C° 1,1 mm 11 m/s 751 mmHg 91%
    20:00 +12°C° 1,1 mm 11 m/s 751 mmHg 90%
    21:00 +12°C° 1,1 mm 11 m/s 751 mmHg 90%
    22:00 +12°C° 1 mm 11 m/s 751 mmHg 90%
    23:00 +12°C° 1 mm 11 m/s 750 mmHg 90%

    Demain, 22 Novembre, Mercredi

    Heure Température Précipitation Vent Pression Humidité
    00:00 +12°C° 1 mm 10 m/s 750 mmHg 89%
    01:00 +12°C° 0,2 mm 10 m/s 750 mmHg 89%
    02:00 +12°C° 0,2 mm 10 m/s 749 mmHg 89%
    03:00 +12°C° 0,2 mm 9 m/s 749 mmHg 88%
    04:00 +12°C° 0,1 mm 10 m/s 748 mmHg 89%
    05:00 +12°C° 0,1 mm 10 m/s 747 mmHg 89%
    06:00 +13°C° 0,1 mm 10 m/s 747 mmHg 89%
    07:00 +13°C° 0,1 mm 11 m/s 746 mmHg 89%
    08:00 +13°C° 0,1 mm 11 m/s 745 mmHg 88%
    09:00 +13°C° 0,1 mm 11 m/s 745 mmHg 87%
    10:00 +13°C° 0,1 mm 12 m/s 744 mmHg 86%
    11:00 +13°C° 0,1 mm 12 m/s 743 mmHg 86%
    12:00 +13°C° 0,1 mm 13 m/s 742 mmHg 85%
    13:00 +13°C° 0,7 mm 13 m/s 741 mmHg 84%
    14:00 +13°C° 0,7 mm 14 m/s 740 mmHg 84%
    15:00 +13°C° 0,7 mm 14 m/s 739 mmHg 84%
    16:00 +13°C° 0,4 mm 14 m/s 739 mmHg 85%
    17:00 +13°C° 0,4 mm 13 m/s 738 mmHg 86%
    18:00 +13°C° 0,4 mm 13 m/s 738 mmHg 87%
    19:00 +13°C° 0,6 mm 12 m/s 738 mmHg 88%
    20:00 +13°C° 0,6 mm 12 m/s 737 mmHg 88%
    21:00 +12°C° 0,6 mm 11 m/s 737 mmHg 89%
    22:00 +12°C° 0,7 mm 10 m/s 737 mmHg 90%
    23:00 +12°C° 0,7 mm 10 m/s 736 mmHg 90%

    Après-demain, 23 Novembre, Jeudi

    Heure Température Précipitation Vent Pression Humidité
    00:00 +12°C° 0,7 mm 9 m/s 736 mmHg 91%
    01:00 +12°C° 0,2 mm 9 m/s 737 mmHg 90%
    02:00 +12°C° 0,2 mm 10 m/s 737 mmHg 90%
    03:00 +12°C° 0,2 mm 10 m/s 738 mmHg 90%
    04:00 +12°C° 0,3 mm 10 m/s 739 mmHg 89%
    05:00 +11°C° 0,3 mm 10 m/s 739 mmHg 89%
    06:00 +11°C° 0,3 mm 10 m/s 740 mmHg 88%
    07:00 +10°C° 0,2 mm 9 m/s 741 mmHg 87%
    08:00 +10°C° 0,2 mm 8 m/s 743 mmHg 86%
    09:00 +9°C° 0,2 mm 7 m/s 744 mmHg 85%
    10:00 +9°C° 0 mm 7 m/s 745 mmHg 81%
    11:00 +9°C° 0 mm 7 m/s 746 mmHg 78%
    12:00 +9°C° 0 mm 7 m/s 746 mmHg 74%
    13:00 +10°C° 0,1 mm 7 m/s 746 mmHg 77%
    14:00 +10°C° 0,1 mm 8 m/s 746 mmHg 79%
    15:00 +10°C° 0,1 mm 8 m/s 746 mmHg 81%
    16:00 +10°C° 0,9 mm 9 m/s 746 mmHg 84%
    17:00 +9°C° 0,9 mm 10 m/s 746 mmHg 86%
    18:00 +11°C° 0,9 mm 10 m/s 746 mmHg 88%
    19:00 +9°C° 0 mm 10 m/s 746 mmHg 85%
    20:00 +8°C° 0 mm 9 m/s 747 mmHg 82%
    21:00 +7°C° 0 mm 8 m/s 748 mmHg 79%
    22:00 +8°C° 0 mm 7 m/s 749 mmHg 79%
    23:00 +8°C° 0 mm 7 m/s 749 mmHg 78%

    24 Novembre, Vendredi

    Heure Température Précipitation Vent Pression Humidité
    00:00 +8°C° 0 mm 7 m/s 749 mmHg 78%
    01:00 +8°C° 0,1 mm 6 m/s 749 mmHg 79%
    02:00 +7°C° 0,1 mm 5 m/s 750 mmHg 80%
    03:00 +7°C° 0,1 mm 4 m/s 750 mmHg 81%
    04:00 +8°C° 0,3 mm 3 m/s 750 mmHg 82%
    05:00 +8°C° 0,3 mm 2 m/s 750 mmHg 83%
    06:00 +8°C° 0,3 mm 1 m/s 750 mmHg 84%
    07:00 +8°C° 0 mm 1 m/s 750 mmHg 84%
    08:00 +8°C° 0 mm 1 m/s 751 mmHg 84%
    09:00 +8°C° 0 mm 1 m/s 751 mmHg 84%
    10:00 +9°C° 0 mm 1 m/s 751 mmHg 81%
    11:00 +9°C° 0 mm 2 m/s 752 mmHg 78%
    12:00 +9°C° 0 mm 2 m/s 752 mmHg 75%
    13:00 +9°C° 0 mm 2 m/s 752 mmHg 76%
    14:00 +9°C° 0 mm 3 m/s 752 mmHg 78%
    15:00 +9°C° 0 mm 3 m/s 751 mmHg 79%
    16:00 +7°C° 0,1 mm 4 m/s 751 mmHg 81%
    17:00 +7°C° 0,1 mm 5 m/s 751 mmHg 83%
    18:00 +5°C° 0,1 mm 6 m/s 751 mmHg 84%
    19:00 +5°C° 1,1 mm 7 m/s 750 mmHg 86%
    20:00 +5°C° 1,1 mm 8 m/s 750 mmHg 87%
    21:00 +5°C° 1,1 mm 9 m/s 749 mmHg 88%
    22:00 +5°C° 1,9 mm 8 m/s 748 mmHg 90%
    23:00 +5°C° 1,9 mm 8 m/s 747 mmHg 91%

    25 Novembre, Samedi

    Heure Température Précipitation Vent Pression Humidité
    00:00 +6°C° 1,9 mm 7 m/s 747 mmHg 93%
    01:00 +6°C° 1 mm 8 m/s 746 mmHg 92%
    02:00 +6°C° 1 mm 9 m/s 746 mmHg 91%
    03:00 +6°C° 1 mm 9 m/s 745 mmHg 90%
    04:00 +4°C° 0,8 mm 11 m/s 746 mmHg 88%
    05:00 +3°C° 0,8 mm 13 m/s 746 mmHg 85%
    06:00 +1°C° 0,8 mm 14 m/s 747 mmHg 82%
    07:00 +1°C° 0,4 mm 13 m/s 748 mmHg 81%
    08:00 +2°C° 0,4 mm 12 m/s 750 mmHg 80%
    09:00 +2°C° 0,4 mm 11 m/s 751 mmHg 79%
    10:00 +2°C° 0,2 mm 11 m/s 753 mmHg 78%
    11:00 +3°C° 0,2 mm 11 m/s 754 mmHg 77%
    12:00 +3°C° 0,2 mm 10 m/s 756 mmHg 76%
    13:00 +3°C° 0,2 mm 10 m/s 757 mmHg 76%
    14:00 +2°C° 0,2 mm 9 m/s 758 mmHg 75%
    15:00 +2°C° 0,2 mm 9 m/s 758 mmHg 74%
    16:00 +2°C° 0,1 mm 9 m/s 759 mmHg 75%
    17:00 +1°C° 0,1 mm 8 m/s 761 mmHg 76%
    18:00 +1°C° 0,1 mm 8 m/s 762 mmHg 76%
    19:00 0°C° 0,1 mm 8 m/s 762 mmHg 76%
    20:00 0°C° 0,1 mm 8 m/s 763 mmHg 75%
    21:00 0°C° 0,1 mm 8 m/s 764 mmHg 75%
    22:00 0°C° 0 mm 8 m/s 764 mmHg 74%
    23:00 0°C° 0 mm 8 m/s 765 mmHg 74%

    26 Novembre, Dimanche

    Heure Température Précipitation Vent Pression Humidité
    00:00 0°C° 0 mm 8 m/s 765 mmHg 73%
    01:00 0°C° 0 mm 7 m/s 766 mmHg 74%
    02:00 0°C° 0 mm 7 m/s 766 mmHg 74%
    03:00 0°C° 0 mm 7 m/s 767 mmHg 75%
    04:00 +1°C° 0 mm 6 m/s 767 mmHg 75%
    05:00 +1°C° 0 mm 6 m/s 767 mmHg 76%
    06:00 +1°C° 0 mm 6 m/s 767 mmHg 77%
    07:00 +1°C° 0 mm 5 m/s 768 mmHg 77%
    08:00 +1°C° 0 mm 5 m/s 768 mmHg 77%
    09:00 +2°C° 0 mm 5 m/s 769 mmHg 78%
    10:00 +3°C° 0 mm 5 m/s 769 mmHg 76%
    11:00 +5°C° 0 mm 5 m/s 769 mmHg 75%
    12:00 +6°C° 0 mm 5 m/s 769 mmHg 73%
    13:00 +6°C° 0 mm 5 m/s 769 mmHg 75%
    14:00 +6°C° 0 mm 5 m/s 768 mmHg 77%
    15:00 +6°C° 0 mm 5 m/s 768 mmHg 79%
    16:00 +5°C° 0 mm 6 m/s 768 mmHg 79%
    17:00 +5°C° 0 mm 6 m/s 768 mmHg 80%
    18:00 +4°C° 0 mm 6 m/s 767 mmHg 81%
    19:00 +4°C° 0 mm 6 m/s 767 mmHg 81%
    20:00 +4°C° 0 mm 6 m/s 767 mmHg 82%
    21:00 +4°C° 0 mm 6 m/s 767 mmHg 82%
    22:00 +4°C° 0 mm 6 m/s 766 mmHg 82%
    23:00 +4°C° 0 mm 6 m/s 766 mmHg 82%
    Voir plus